Find OneWeb SL0149

NORAD ID: 48058 Int'l Des: 2021-025 Owner: ONEWEBN Country: UK Constellation: oneweb operational
LEOCIRCULARPOLARONEWEB_TYPE

現在のビュー

3D地球を読み込み中...

About OneWeb SL0149

OneWeb SL0149 (NORAD 48058) is a oneweb constellation satellite launched Mar 25, 2021 by ONEWEBN of UK. It operates in LEO, CIRCULAR, POLAR, ONEWEB_TYPE orbit with a mass of 148.00 kg.

OneWeb SL0149について

説明を読み込み中...

次回通過

Passes for default location (London). Set your location on the main map for personalized predictions.

高度履歴

Loading altitude history...

軌道要素

1 48058U 21025S 26170.52029198 -.00000186 00000-0 -54379-3 0 9995
2 48058 87.8964 319.7587 0002010 93.2990 266.8369 13.13470831253791
Epoch: Jun 19, 2026 • Age: 13 hours

現在のステータス

高度 1221.5 km
速度 7.25 km/s
衛星直下点 77.70°N, 165.34°W
打ち上げ日 Mar 25, 2021
運用期間 5.2 years
タイプ internet

技術仕様

分類 Payload
質量 148.00 kg
乾燥質量 140.00 kg
総質量 148.00 kg
長さ 1.30 m
直径 1.00 m
スパン 5.00 m
形状 Trapezoid+2 pan
製造者 ONEWUS
バスタイプ ARROW
フェーズステータス In Orbit
所有者/国 ONEWEBN/UK

Most Searched